Temp
-12 -12 -12 -13 -13 -13 -14 -14 -14 -14 -14 -14 -14 -14 -14 -14 -14 -14 -14 -14 -14 -14 -14 -15 -14 -15 -15 -15 -15 -15 -15 -15 -16 -16 -16 -16 -16 -17 -17 -17 -17 -16 -16
-12 -13 -13 -13 -13 -14 -14 -14 -14 -14 -14 -14 -14 -14 -14 -14 -14 -14 -14 -14 -14 -14 -14 -14 -14 -15 -15 -16 -16 -15 -15 -15 -16 -16 -17 -17 -17 -17 -16 -16 -16 -16 -16
-13 -13 -13 -13 -14 -14 -15 -15 -15 -15 -15 -14 -14 -14 -14 -14 -14 -15 -14 -14 -14 -14 -14 -15 -15 -15 -15 -16 -16 -16 -16 -16 -16 -16 -16 -17 -17 -17 -17 -17 -17 -17 -16
-13 -13 -13 -14 -13 -15 -15 -15 -15 -15 -15 -15 -15 -14 -15 -14 -15 -15 -15 -15 -15 -15 -15 -15 -15 -15 -15 -15 -16 -17 -17 -17 -17 -17 -17 -17 -17 -17 -17 -17 -17 -17 -17
-14 -14 -14 -14 -14 -15 -15 -15 -15 -15 -15 -15 -15 -15 -15 -15 -15 -15 -15 -15 -15 -15 -15 -15 -15 -15 -16 -16 -16 -16 -16 -17 -17 -17 -17 -17 -18 -17 -17 -17 -17 -17 -17
-14 -14 -14 -14 -15 -15 -15 -15 -15 -15 -15 -15 -15 -15 -15 -15 -15 -15 -15 -15 -15 -15 -15 -15 -16 -16 -16 -16 -16 -16 -17 -17 -17 -18 -18 -18 -18 -17 -17 -17 -17 -17 -17
-15 -15 -14 -15 -15 -15 -15 -15 -15 -15 -15 -15 -15 -15 -16 -16 -16 -16 -15 -16 -16 -16 -16 -16 -16 -16 -16 -16 -16 -17 -17 -17 -18 -18 -18 -18 -19 -19 -18 -18 -18 -18 -18
-15 -15 -15 -16 -16 -16 -15 -15 -15 -15 -15 -15 -15 -16 -16 -16 -17 -17 -17 -17 -17 -16 -17 -17 -16 -16 -16 -16 -17 -17 -17 -17 -18 -18 -18 -18 -18 -18 -18 -18 -18 -18 -18
-16 -16 -16 -16 -16 -16 -16 -16 -15 -15 -15 -15 -16 -16 -17 -18 -18 -17 -17 -17 -17 -17 -16 -17 -17 -17 -16 -16 -17 -17 -17 -17 -18 -18 -18 -18 -18 -18 -18 -18 -18 -18 -18
-16 -16 -16 -16 -16 -16 -16 -15 -15 -15 -15 -15 -15 -17 -18 -19 -18 -18 -18 -18 -17 -17 -17 -17 -17 -17 -17 -16 -17 -17 -18 -18 -18 -18 -18 -18 -18 -18 -18 -18 -18 -18 -18
-17 -17 -16 -16 -16 -16 -16 -15 -15 -15 -15 -15 -16 -17 -19 -19 -19 -19 -19 -18 -18 -17 -17 -17 -17 -17 -17 -17 -17 -17 -18 -18 -18 -18 -18 -18 -18 -18 -18 -18 -18 -19 -19
-17 -17 -16 -16 -16 -16 -16 -15 -15 -15 -15 -16 -17 -18 -19 -20 -19 -20 -19 -19 -18 -18 -18 -17 -18 -17 -17 -17 -17 -17 -17 -17 -18 -18 -18 -18 -18 -18 -18 -18 -18 -18 -18
-17 -17 -17 -17 -16 -16 -16 -15 -15 -15 -16 -16 -17 -18 -19 -20 -20 -20 -19 -19 -18 -18 -18 -17 -18 -17 -17 -17 -17 -17 -17 -17 -19 -18 -18 -18 -18 -18 -19 -18 -18 -18 -18
-18 -17 -17 -17 -16 -16 -15 -15 -16 -16 -17 -17 -18 -19 -19 -20 -20 -20 -20 -19 -19 -18 -18 -18 -18 -18 -17 -17 -17 -17 -17 -18 -18 -18 -18 -18 -19 -18 -18 -18 -18 -18 -18
-18 -18 -17 -17 -16 -16 -16 -16 -17 -17 -17 -18 -18 -19 -20 -21 -21 -21 -20 -20 -20 -19 -19 -18 -18 -18 -18 -17 -17 -17 -17 -18 -18 -18 -18 -18 -18 -18 -18 -18 -18 -18 -18
-18 -18 -17 -17 -17 -17 -16 -17 -17 -17 -18 -18 -18 -19 -20 -21 -21 -21 -21 -20 -20 -19 -19 -19 -18 -18 -18 -18 -18 -18 -18 -18 -18 -18 -18 -18 -18 -18 -18 -18 -18 -18 -18
-19 -18 -18 -17 -17 -17 -17 -17 -18 -18 -18 -18 -18 -18 -19 -20 -21 -21 -21 -21 -20 -20 -19 -19 -19 -19 -19 -19 -19 -18 -18 -18 -18 -18 -18 -18 -18 -18 -19 -19 -19 -19 -19
-19 -18 -18 -18 -18 -17 -18 -18 -18 -18 -18 -19 -19 -19 -19 -19 -20 -20 -20 -20 -21 -21 -20 -20 -19 -19 -19 -19 -18 -19 -19 -18 -18 -18 -18 -18 -18 -18 -19 -19 -19 -19 -19
-19 -19 -18 -18 -18 -18 -19 -19 -19 -19 -19 -19 -19 -19 -19 -19 -19 -19 -20 -20 -20 -20 -20 -21 -20 -20 -19 -19 -19 -19 -19 -19 -19 -19 -19 -18 -19 -19 -18 -19 -19 -19 -19
-19 -19 -19 -19 -19 -19 -19 -19 -19 -19 -19 -19 -19 -19 -19 -19 -19 -19 -20 -19 -19 -20 -20 -20 -20 -20 -20 -20 -19 -19 -19 -19 -19 -19 -19 -19 -19 -19 -19 -19 -19 -19 -19
-20 -20 -20 -20 -20 -20 -20 -20 -20 -19 -19 -19 -19 -20 -20 -19 -20 -20 -20 -20 -20 -20 -20 -20 -20 -19 -19 -19 -20 -19 -19 -19 -19 -19 -19 -19 -19 -19 -19 -19 -19 -19 -19
-21 -21 -21 -21 -21 -21 -20 -20 -20 -20 -20 -20 -20 -20 -20 -20 -20 -20 -20 -20 -20 -20 -20 -20 -20 -20 -20 -19 -19 -19 -19 -19 -19 -19 -19 -19 -19 -19 -19 -19 -19 -19 -19
-21 -21 -22 -22 -22 -21 -21 -21 -21 -20 -20 -20 -20 -20 -20 -20 -20 -20 -20 -20 -21 -20 -20 -21 -21 -21 -20 -20 -20 -19 -19 -19 -19 -19 -19 -19 -19 -19 -19 -19 -19 -19 -19
-22 -22 -22 -22 -22 -22 -22 -22 -22 -21 -21 -21 -21 -21 -21 -21 -21 -21 -21 -21 -21 -21 -21 -21 -21 -21 -21 -21 -21 -20 -20 -20 -20 -20 -20 -20 -19 -19 -19 -19 -19 -19 -20
-22 -22 -23 -22 -22 -22 -22 -22 -22 -22 -22 -22 -21 -21 -21 -21 -21 -21 -21 -21 -22 -22 -22 -22 -21 -21 -22 -21 -21 -21 -21 -21 -21 -20 -20 -20 -20 -20 -20 -20 -19 -19 -19
-22 -22 -23 -23 -22 -22 -22 -22 -22 -22 -22 -22 -22 -21 -21 -21 -21 -21 -22 -22 -22 -22 -22 -22 -22 -22 -22 -22 -22 -22 -21 -21 -21 -21 -21 -20 -20 -20 -20 -20 -20 -20 -20
Height
5742 5742 5742 5741 5741 5739 5738 5737 5737 5736 5735 5732 5731 5729 5728 5726 5725 5724 5722 5721 5719 5717 5716 5713 5711 5711 5712 5713 5715 5715 5716 5717 5719 5721 5723 5725 5727 5728 5730 5731 5731 5731 5732
5735 5736 5735 5735 5734 5733 5732 5732 5731 5731 5729 5728 5727 5725 5724 5723 5722 5721 5719 5718 5717 5716 5714 5713 5711 5709 5711 5710 5712 5713 5715 5715 5715 5716 5717 5720 5722 5725 5727 5727 5728 5729 5730
5727 5728 5728 5727 5727 5726 5725 5725 5724 5724 5724 5723 5722 5721 5719 5718 5718 5717 5716 5715 5713 5713 5712 5710 5709 5708 5707 5708 5708 5710 5711 5712 5713 5713 5714 5714 5716 5720 5722 5724 5724 5725 5725
5719 5720 5720 5720 5719 5718 5717 5717 5717 5717 5718 5717 5717 5715 5715 5714 5714 5713 5712 5711 5710 5708 5707 5706 5705 5704 5704 5704 5705 5704 5706 5708 5709 5709 5710 5711 5711 5712 5715 5716 5717 5718 5719
5710 5711 5710 5711 5710 5709 5710 5711 5710 5711 5711 5711 5711 5710 5710 5710 5710 5708 5707 5706 5704 5703 5701 5700 5700 5700 5699 5699 5700 5700 5700 5702 5704 5705 5706 5706 5706 5707 5708 5709 5710 5711 5712
5701 5701 5702 5702 5702 5702 5703 5704 5704 5705 5705 5705 5704 5703 5704 5704 5703 5702 5701 5699 5698 5697 5695 5694 5693 5693 5694 5695 5695 5696 5696 5697 5699 5699 5701 5701 5702 5703 5704 5705 5707 5707 5707
5691 5691 5692 5693 5694 5696 5697 5697 5698 5698 5697 5697 5696 5696 5696 5696 5695 5694 5693 5692 5691 5690 5690 5689 5688 5687 5687 5688 5690 5691 5692 5692 5693 5695 5696 5698 5699 5698 5699 5699 5700 5701 5703
5681 5681 5683 5685 5687 5688 5689 5690 5690 5690 5690 5688 5688 5688 5688 5688 5688 5686 5686 5685 5684 5682 5683 5682 5682 5681 5681 5682 5683 5684 5686 5688 5689 5690 5691 5692 5692 5692 5693 5694 5695 5697 5698
5671 5673 5676 5677 5679 5681 5682 5683 5683 5683 5681 5679 5677 5677 5677 5677 5678 5679 5679 5677 5676 5675 5674 5675 5675 5675 5675 5675 5677 5678 5681 5683 5684 5684 5684 5684 5685 5687 5688 5689 5691 5692 5693
5663 5665 5668 5670 5672 5673 5673 5674 5675 5673 5672 5669 5668 5667 5666 5666 5668 5669 5670 5669 5669 5667 5667 5668 5669 5669 5669 5669 5671 5673 5675 5676 5677 5678 5678 5679 5681 5682 5684 5686 5686 5687 5688
5654 5657 5659 5661 5663 5664 5665 5665 5664 5663 5660 5658 5657 5656 5655 5656 5657 5659 5659 5660 5660 5661 5660 5660 5662 5663 5663 5663 5665 5668 5669 5670 5672 5674 5675 5676 5677 5679 5681 5682 5682 5683 5684
5645 5648 5651 5653 5654 5656 5655 5655 5653 5651 5649 5648 5646 5645 5645 5646 5647 5648 5650 5650 5652 5653 5653 5653 5654 5657 5657 5658 5660 5662 5664 5666 5668 5669 5671 5672 5673 5674 5676 5678 5680 5681 5682
5637 5640 5642 5644 5646 5646 5645 5644 5641 5640 5639 5637 5636 5636 5636 5636 5637 5639 5640 5642 5643 5645 5645 5646 5648 5650 5651 5653 5655 5657 5659 5662 5664 5666 5667 5669 5670 5672 5673 5675 5676 5677 5678
5627 5630 5633 5635 5635 5635 5634 5632 5631 5630 5629 5629 5628 5628 5628 5627 5628 5629 5631 5633 5635 5637 5637 5640 5641 5644 5645 5647 5649 5652 5654 5657 5659 5661 5663 5665 5667 5668 5669 5671 5671 5672 5674
5617 5621 5623 5624 5625 5625 5623 5622 5621 5620 5621 5621 5621 5621 5621 5621 5621 5622 5623 5625 5629 5631 5632 5634 5635 5637 5639 5642 5644 5646 5649 5651 5654 5657 5659 5661 5663 5664 5665 5666 5667 5668 5669
5607 5610 5613 5613 5615 5614 5614 5613 5612 5613 5614 5614 5615 5615 5613 5614 5614 5615 5616 5617 5620 5623 5625 5627 5629 5631 5633 5635 5638 5640 5643 5646 5648 5651 5653 5655 5658 5659 5660 5661 5662 5663 5665
5598 5600 5602 5604 5604 5604 5603 5603 5604 5605 5606 5607 5608 5608 5608 5608 5608 5609 5611 5612 5613 5615 5616 5619 5622 5624 5626 5628 5630 5632 5635 5638 5640 5643 5645 5648 5650 5652 5654 5655 5656 5657 5658
5588 5590 5592 5593 5593 5594 5593 5594 5597 5598 5600 5600 5602 5601 5603 5602 5602 5603 5604 5605 5607 5608 5610 5611 5613 5615 5617 5619 5621 5624 5626 5629 5632 5634 5637 5639 5642 5644 5645 5647 5649 5650 5651
5578 5579 5581 5582 5583 5583 5585 5587 5589 5591 5592 5593 5594 5594 5596 5597 5597 5597 5597 5598 5598 5599 5602 5603 5604 5605 5608 5609 5611 5614 5616 5619 5621 5624 5627 5629 5631 5633 5636 5638 5639 5641 5642
5567 5569 5570 5572 5573 5574 5576 5578 5580 5583 5585 5585 5586 5587 5589 5589 5590 5590 5590 5590 5589 5588 5590 5593 5595 5596 5598 5599 5600 5602 5604 5607 5610 5613 5615 5617 5619 5621 5624 5627 5629 5630 5632
5557 5559 5560 5561 5562 5564 5567 5569 5572 5574 5575 5576 5577 5579 5581 5582 5582 5581 5582 5582 5582 5582 5583 5584 5585 5586 5587 5588 5589 5591 5592 5594 5597 5599 5602 5605 5607 5610 5612 5614 5617 5618 5620
5547 5548 5549 5550 5552 5555 5557 5560 5562 5564 5565 5567 5568 5570 5571 5572 5571 5572 5572 5573 5574 5574 5575 5575 5575 5576 5577 5577 5577 5578 5580 5582 5584 5586 5589 5591 5594 5597 5599 5601 5604 5606 5608
5535 5537 5539 5541 5542 5545 5547 5550 5552 5554 5555 5556 5558 5559 5559 5561 5561 5561 5562 5563 5563 5564 5564 5564 5565 5565 5565 5566 5566 5565 5566 5568 5570 5573 5575 5577 5580 5582 5585 5587 5589 5591 5593
5525 5526 5528 5531 5534 5536 5538 5540 5541 5543 5545 5546 5547 5548 5548 5549 5550 5550 5550 5550 5552 5552 5553 5553 5553 5553 5554 5554 5554 5554 5554 5554 5557 5559 5561 5563 5565 5567 5569 5572 5573 5575 5576
5514 5516 5518 5521 5523 5525 5527 5529 5531 5532 5533 5534 5535 5536 5537 5537 5537 5538 5538 5537 5538 5539 5539 5540 5541 5541 5542 5542 5542 5542 5543 5543 5544 5546 5548 5549 5551 5552 5553 5555 5557 5559 5561
5502 5505 5507 5510 5511 5513 5514 5515 5517 5519 5520 5521 5521 5522 5523 5523 5523 5523 5523 5523 5524 5525 5526 5527 5528 5529 5530 5530 5531 5531 5531 5532 5532 5533 5533 5534 5536 5537 5538 5539 5540 5542 5544
Wind_Speed
31 29 27 26 27 27 26 24 22 21 20 18 18 15 13 12 11 11 9 6 4 6 8 12 14 15 13 13 12 12 13 13 12 12 13 14 12 12 16 18 21 18 18
30 29 26 28 28 28 27 26 24 22 20 19 18 16 14 13 12 11 10 7 6 8 13 13 15 17 17 16 16 19 20 20 18 16 15 17 16 17 19 18 17 17 18
29 28 29 30 30 30 29 27 25 23 20 18 18 17 17 15 14 12 11 10 9 9 13 20 20 20 19 19 20 20 21 22 22 21 21 21 18 17 17 20 22 22 22
31 33 34 33 33 33 30 27 24 24 21 20 18 18 18 17 16 16 15 14 13 13 13 17 23 26 26 24 23 21 21 21 22 24 23 23 22 18 19 20 23 24 24
34 36 36 34 33 31 27 25 24 24 24 21 21 20 21 22 20 22 21 19 18 17 15 15 20 25 27 26 26 24 23 22 22 22 25 27 25 23 21 18 17 19 22
36 36 34 34 31 27 25 25 24 24 24 24 26 28 26 24 24 23 25 24 22 22 19 17 18 23 27 28 25 27 24 20 20 21 21 23 26 24 21 21 21 21 18
36 33 33 30 28 26 25 25 24 24 25 27 30 32 31 27 25 27 27 25 25 25 22 19 18 20 25 28 28 30 29 23 24 21 21 23 23 24 25 24 23 22 19
33 32 30 27 25 25 25 24 23 24 28 31 33 35 35 33 29 29 28 26 27 27 28 24 20 20 20 28 29 29 28 25 26 27 29 28 28 27 22 20 21 22 21
31 28 27 26 25 25 24 24 27 31 35 37 38 39 36 35 33 31 29 28 28 28 26 27 21 21 21 23 30 28 29 27 28 29 28 26 25 24 23 21 21 22 22
31 29 29 29 29 29 30 32 35 39 40 41 39 37 37 37 33 33 32 30 23 29 27 26 27 22 21 23 26 29 29 30 26 26 25 24 23 24 25 25 23 21 19
33 32 33 34 34 34 34 36 39 40 40 37 36 35 33 31 33 34 35 32 27 24 25 26 30 25 21 22 24 26 29 25 23 23 22 20 20 22 22 20 15 14 15
34 35 35 35 35 36 36 38 39 38 36 35 33 33 31 33 33 32 33 33 30 29 26 25 29 28 23 23 25 26 25 23 21 19 18 21 20 18 19 16 15 17 18
36 36 36 36 34 34 35 36 37 35 33 31 30 28 28 29 31 31 34 32 30 26 31 21 27 26 27 25 25 25 25 24 21 19 17 16 17 20 21 19 18 19 20
38 36 34 32 31 32 34 36 35 32 29 27 25 24 25 24 27 30 32 31 32 25 24 20 25 24 30 29 29 26 25 25 25 23 20 18 18 18 18 18 19 21 19
34 31 32 32 31 32 34 33 32 28 24 21 20 21 23 24 26 25 27 33 27 28 23 23 21 28 23 32 31 29 27 25 21 20 18 16 16 14 11 11 14 16 18
30 32 33 32 32 33 34 32 28 22 20 18 18 19 21 22 23 23 23 22 24 29 28 23 24 24 21 26 32 32 30 29 26 25 24 22 22 22 19 16 14 15 15
31 33 34 33 32 33 33 29 25 22 20 19 19 17 17 19 20 22 21 19 21 25 35 37 34 32 26 29 29 33 34 34 35 35 34 30 29 28 24 24 22 20 18
33 34 33 33 34 34 31 27 26 23 21 20 19 17 16 17 18 22 25 27 25 24 27 29 36 39 36 31 33 33 34 39 39 38 39 35 33 36 33 31 30 28 26
35 35 35 36 35 32 30 28 26 25 25 24 23 20 20 19 19 19 22 27 33 36 34 29 31 33 37 39 39 37 37 36 39 42 40 40 41 41 39 39 37 35 33
39 38 39 37 33 31 31 30 29 29 27 23 21 20 21 22 23 23 24 25 25 27 35 35 33 34 31 31 38 43 41 38 38 42 43 43 43 40 43 40 41 41 38
41 40 39 35 32 32 33 33 33 32 30 27 25 24 24 24 23 23 25 27 26 24 25 29 31 32 35 35 40 36 41 46 47 41 46 45 44 42 44 47 44 43 43
39 37 35 32 32 33 35 36 35 35 33 32 31 31 30 31 29 28 27 29 31 31 31 31 32 33 34 35 35 45 42 39 46 46 42 44 50 48 48 48 46 45 48
36 35 33 32 32 33 34 35 36 36 36 36 37 37 36 35 34 34 34 33 33 35 36 36 36 36 36 36 36 36 44 48 45 44 47 49 49 46 51 54 50 52 56
36 34 33 33 33 33 33 34 35 35 36 37 38 39 39 38 38 38 39 39 38 38 38 38 38 38 37 36 36 33 35 44 49 45 43 43 48 50 54 52 53 50 51
36 36 35 35 35 35 35 35 36 36 37 38 39 40 41 42 42 43 43 43 42 41 40 39 39 38 37 35 36 37 35 34 40 49 50 47 46 42 43 50 53 54 52
40 40 40 39 39 40 38 38 39 41 41 42 43 44 45 46 46 46 45 44 43 43 42 41 41 40 40 38 37 36 38 39 38 36 39 44 47 48 47 46 44 49 53
Wind_Direction
273 275 276 280 291 295 294 293 294 297 302 308 312 320 322 322 324 329 342 344 302 238 247 242 227 212 199 203 208 209 217 219 211 216 207 204 201 234 229 234 227 232 235
270 272 271 281 287 288 287 286 289 292 293 300 304 307 308 311 309 312 315 314 303 260 236 240 249 237 215 212 218 219 219 227 235 237 236 234 238 222 213 222 221 233 248
265 263 271 277 282 282 279 279 283 284 285 291 294 297 298 300 297 298 296 289 281 275 249 239 236 239 242 226 223 221 227 233 237 238 244 245 246 231 219 227 233 236 248
263 267 271 277 280 276 271 271 274 275 279 289 291 292 294 295 297 297 291 279 271 272 269 250 243 238 242 241 243 246 246 236 233 238 239 241 246 249 247 242 242 247 258
263 265 270 276 274 269 267 267 268 271 281 286 287 288 295 297 295 297 292 279 264 261 266 263 250 245 243 245 246 244 246 251 246 244 244 244 238 239 244 252 255 260 260
262 267 272 270 263 260 261 264 266 275 282 284 286 291 292 292 295 288 285 280 265 256 257 265 261 251 242 241 243 239 250 246 245 244 242 244 237 234 242 243 249 253 248
263 267 265 259 257 259 262 267 273 278 281 283 285 287 288 286 277 277 276 274 269 257 254 260 262 261 249 240 238 239 248 243 236 241 257 250 246 240 240 245 251 246 249
262 259 253 250 253 257 260 268 274 277 279 283 287 287 287 284 275 269 273 276 271 266 248 242 258 263 260 243 238 238 239 242 246 249 253 255 252 250 242 244 244 241 242
256 247 248 251 253 257 261 266 275 280 285 288 288 285 281 280 271 265 268 272 275 267 265 239 251 260 261 251 236 234 235 244 251 253 251 251 250 245 235 239 248 250 253
245 245 247 248 248 253 259 268 277 284 289 291 288 282 278 272 268 265 266 264 273 261 259 250 241 253 259 252 234 235 235 242 249 250 245 243 244 239 239 248 252 248 242
240 242 244 248 253 259 270 277 283 287 290 289 283 275 269 270 265 261 262 259 262 251 258 256 241 245 249 246 233 230 233 236 239 244 243 238 238 241 243 244 230 221 212
237 242 249 256 263 269 275 281 287 292 290 286 280 275 271 263 260 260 260 259 253 256 249 253 239 247 240 240 235 229 225 222 223 228 234 233 233 237 216 217 230 235 231
239 247 253 260 266 274 279 286 292 290 286 282 278 274 271 265 260 256 257 259 256 265 239 246 239 247 244 229 225 220 218 220 210 213 217 226 227 219 217 234 245 242 235
242 249 255 262 269 278 285 290 289 286 280 275 272 273 270 266 261 255 254 257 261 245 241 244 248 246 229 229 221 221 223 222 219 215 216 214 214 217 229 239 242 240 238
245 249 257 264 273 284 290 289 285 278 267 267 271 273 265 263 259 260 259 253 252 255 255 233 233 232 242 229 226 224 222 218 212 209 212 217 221 229 235 239 240 240 237
241 249 260 269 277 285 289 284 275 258 256 260 268 275 269 256 259 261 261 266 256 236 232 238 240 242 243 244 237 228 226 219 218 220 221 226 229 232 229 239 243 248 255
249 257 265 273 280 282 283 274 252 248 250 255 259 265 266 248 248 254 255 252 258 255 246 250 250 247 242 238 243 239 233 229 226 228 227 229 234 235 236 232 237 242 247
257 262 267 273 276 279 275 252 247 245 245 250 256 260 261 257 253 248 253 256 256 252 253 252 248 244 244 237 237 246 246 243 239 232 234 234 241 243 237 240 242 246 244
258 263 268 270 273 273 260 246 244 244 249 250 253 255 260 263 264 267 267 265 260 255 250 252 246 247 250 252 247 244 248 246 248 247 242 243 239 245 243 244 248 251 254
260 263 264 268 269 262 249 244 244 247 245 243 248 253 259 263 266 267 269 276 276 271 251 246 249 244 252 257 254 251 246 249 252 252 249 249 246 249 242 244 246 253 254
260 261 263 266 262 253 245 242 243 244 245 247 249 252 256 260 263 267 269 271 273 274 262 256 257 255 257 260 253 260 257 253 252 255 248 246 248 246 247 247 251 253 254
259 262 263 260 255 251 246 242 242 244 248 252 255 257 258 261 263 267 269 269 268 267 266 266 264 263 263 264 264 249 250 256 257 252 251 251 250 249 248 249 255 255 253
260 260 258 255 254 251 249 248 248 249 250 253 256 258 259 260 261 264 266 269 268 266 265 265 265 265 266 265 265 261 251 246 249 251 255 255 255 255 252 253 257 259 258
260 258 255 254 254 254 253 253 255 256 256 256 257 257 258 260 261 264 266 267 267 264 263 264 264 265 266 264 263 267 260 252 248 251 252 254 253 255 255 254 258 264 261
258 257 255 254 256 257 258 258 259 261 262 263 263 264 264 264 265 265 266 265 264 262 260 260 261 262 263 264 263 260 261 261 256 255 256 257 257 257 258 254 256 256 257
258 259 259 258 258 259 260 262 264 265 267 268 268 267 266 266 266 265 264 263 260 259 258 259 259 260 261 262 263 264 263 262 260 260 260 258 258 260 260 257 258 256 254